GW0263 Weather Reports


time (UTC)temp
C
wind
direction
speed
KPH
gust
KPH
rain 1hr
cm
rain 24hr
cm
rain mn
cm
humidity
%
barometer
mb
20260906094537 19 0 0.0 0.0 0.00 0.00 0.00 89 1015.9
20260906093039 19 0 0.0 0.0 0.00 0.00 0.00 88 1015.9
20260906091537 20 0 0.0 0.0 0.00 0.00 0.00 88 1015.6
20260906090055 20 0 0.0 0.0 0.00 0.00 0.00 89 1015.7
20260906084539 20 0 0.0 0.0 0.00 0.00 0.00 89 1015.8
20260906083039 20 0 0.0 0.0 0.00 0.00 0.00 89 1015.8
20260906081539 20 0 0.0 0.0 0.00 0.00 0.00 89 1015.7
20260906080039 20 0 0.0 0.0 0.00 0.00 0.00 89 1015.7
20260906074536 20 0 0.0 0.0 0.00 0.00 0.00 89 1015.7
20260906073054 20 0 0.0 0.0 0.00 0.00 0.00 89 1015.6
20260906071538 20 0 0.0 0.0 0.00 0.00 0.00 89 1015.7
20260906070039 20 0 0.0 0.0 0.00 0.00 0.00 89 1015.7
20260906064536 20 0 0.0 0.0 0.00 0.00 0.00 89 1015.8
20260906063046 20 0 0.0 0.0 0.00 0.00 0.00 89 1016.0
20260906061538 20 0 0.0 0.0 0.00 0.00 0.00 89 1016.2
20260906060037 20 0 0.0 0.0 0.00 0.00 0.00 89 1016.5
20260906054541 20 0 0.0 0.0 0.00 0.00 0.00 89 1016.7
20260906053038 20 0 0.0 0.0 0.00 0.00 0.00 89 1016.9
20260906051552 20 0 0.0 0.0 0.00 0.00 0.00 89 1017.0
20260906050046 20 0 0.0 0.0 0.00 0.00 0.00 89 1017.2
20260906044546 21 0 0.0 0.0 0.00 0.00 0.00 90 1017.2
20260906043046 21 0 0.0 0.0 0.00 0.00 0.00 89 1017.0
20260906041536 21 0 0.0 0.0 0.00 0.00 0.00 89 1017.1
20260906040040 21 0 0.0 0.0 0.00 0.00 0.00 89 1017.1
20260906034540 21 0 0.0 0.0 0.00 0.00 0.00 90 1017.2
20260906033036 21 0 0.0 0.0 0.00 0.00 0.00 90 1017.1
20260906031542 21 0 0.0 0.0 0.00 0.00 0.00 90 1017.0
20260906030036 21 0 0.0 0.0 0.00 0.00 0.00 90 1017.3
20260906024535 21 0 0.0 0.0 0.00 0.00 0.00 89 1017.1
20260906023037 21 0 0.0 0.0 0.00 0.00 0.00 89 1017.1
20260906021538 22 0 0.0 0.0 0.00 0.00 0.00 89 1017.4
20260906020038 22 0 0.0 0.0 0.00 0.00 0.00 89 1017.4
20260906014535 22 0 0.0 0.0 0.00 0.00 0.00 89 1017.2
20260906013057 22 0 0.0 0.0 0.00 0.00 0.00 88 1016.7
20260906011544 22 0 0.0 0.0 0.00 0.00 0.00 88 1016.7
20260906010039 23 0 0.0 0.0 0.00 0.00 0.00 87 1016.7
20260906004540 23 0 0.0 0.0 0.00 0.00 0.00 86 1016.5
20260906003038 23 0 0.0 0.0 0.00 0.00 0.00 86 1016.1
20260906001538 24 0 0.0 0.0 0.00 0.00 0.00 85 1016.0
20260906000044 24 0 0.0 0.0 0.00 0.00 0.00 83 1015.9
20260905234540 25 0 0.0 0.0 0.00 0.00 0.00 83 1016.0
20260905233043 25 0 0.0 0.0 0.00 0.00 0.00 85 1016.2
20260905231537 25 0 0.0 0.0 0.00 0.00 0.00 85 1016.0
20260905230042 25 0 0.0 0.0 0.00 0.00 0.00 84 1015.9
20260905224535 25 0 0.0 0.0 0.00 0.00 0.00 83 1015.7
20260905223042 25 0 0.0 0.0 0.00 0.00 0.00 82 1015.7
20260905221539 26 0 0.0 0.0 0.00 0.00 0.00 82 1016.0
20260905220039 26 0 0.0 0.0 0.00 0.00 0.00 81 1016.1
20260905214536 26 0 0.0 0.0 0.00 0.00 0.00 81 1016.2
20260905213041 26 0 0.0 0.0 0.00 0.00 0.00 81 1015.9
20260905211539 26 0 0.0 0.0 0.00 0.00 0.00 79 1015.9
20260905210047 26 0 0.0 0.0 0.00 0.00 0.00 77 1016.1
20260905204536 26 0 0.0 0.0 0.00 0.00 0.00 75 1016.4
20260905203051 26 0 0.0 0.0 0.00 0.00 0.00 75 1016.8
20260905201539 26 0 0.0 0.0 0.00 0.00 0.00 75 1016.6
20260905200039 26 0 0.0 0.0 0.00 0.00 0.00 80 1016.6
20260905194539 26 0 0.0 0.0 0.00 0.00 0.00 76 1017.4
20260905193037 27 0 0.0 0.0 0.00 0.00 0.00 74 1017.6
20260905191542 27 0 0.0 0.0 0.00 0.00 0.00 74 1017.6
20260905190040 29 0 0.0 0.0 0.00 0.00 0.00 74 1017.2
20260905184546 31 0 0.0 0.0 0.00 0.00 0.00 69 1016.7
20260905183040 32 0 0.0 0.0 0.00 0.00 0.00 62 1016.6
20260905181535 33 0 0.0 0.0 0.00 0.00 0.00 57 1016.7
20260905180041 33 0 0.0 0.0 0.00 0.00 0.00 58 1016.9
20260905174539 35 0 0.0 0.0 0.00 0.00 0.00 54 1017.1
20260905173039 35 0 0.0 0.0 0.00 0.00 0.00 51 1017.2
20260905171550 34 0 0.0 0.0 0.00 0.00 0.00 52 1017.2
20260905170038 34 0 0.0 0.0 0.00 0.00 0.00 57 1017.4
20260905164543 34 0 0.0 0.0 0.00 0.00 0.00 58 1017.7
20260905163044 33 0 0.0 0.0 0.00 0.00 0.00 55 1017.9
20260905161538 33 0 0.0 0.0 0.00 0.00 0.00 60 1018.1
20260905160036 33 0 0.0 0.0 0.00 0.00 0.00 61 1018.1
20260905154544 32 0 0.0 0.0 0.00 0.00 0.00 65 1018.3
20260905153037 31 0 0.0 0.0 0.00 0.00 0.00 65 1018.3
20260905151540 30 0 0.0 0.0 0.00 0.00 0.00 68 1018.4
20260905150042 29 0 0.0 0.0 0.00 0.00 0.00 72 1018.4
20260905144539 28 0 0.0 0.0 0.00 0.00 0.00 78 1018.3
20260905143035 26 0 0.0 0.0 0.00 0.00 0.00 83 1018.3
20260905141538 25 0 0.0 0.0 0.00 0.00 0.00 88 1018.4
20260905140035 23 0 0.0 0.0 0.00 0.00 0.00 90 1018.7
20260905134537 23 0 0.0 0.0 0.00 0.00 0.00 89 1018.9
20260905133035 22 0 0.0 0.0 0.00 0.00 0.00 87 1019.1
20260905131539 22 0 0.0 0.0 0.00 0.00 0.00 86 1019.0
20260905130040 22 0 0.0 0.0 0.00 0.00 0.00 86 1018.9
20260905124536 21 0 0.0 0.0 0.00 0.00 0.00 86 1018.8
20260905123039 21 0 0.0 0.0 0.00 0.00 0.00 87 1018.8
20260905121538 21 0 0.0 0.0 0.00 0.00 0.00 88 1018.6
20260905120048 21 0 0.0 0.0 0.00 0.00 0.00 88 1018.6
20260905114536 21 0 0.0 0.0 0.00 0.00 0.00 88 1018.5
20260905113037 21 0 0.0 0.0 0.00 0.00 0.00 88 1018.0
20260905111536 21 0 0.0 0.0 0.00 0.00 0.00 89 1017.9
20260905110036 21 0 0.0 0.0 0.00 0.00 0.00 89 1017.7
20260905104550 21 0 0.0 0.0 0.00 0.00 0.00 89 1017.8
20260905103040 21 0 0.0 0.0 0.00 0.00 0.00 89 1017.7
20260905101545 21 0 0.0 0.0 0.00 0.00 0.00 89 1017.6
20260905100042 21 0 0.0 0.0 0.00 0.00 0.00 88 1017.7